User: anonymous   Login
Location: Carabito
(9.8355°N, 67.9249°W)
Time: 14:03:19
(UTC+00:00)
Language:

Cosmos 2227 Rocket - Orbit

View from above orbital plane
View from above orbital plane
View from above satellite
View from above satellite

Ground track
Ground track

The orbit data is extracted from the following two-line orbital elements,

1 22285U 92093B   24198.94261179  .00000172  00000-0  11297-3 0  9998
2 22285  71.0196 185.2494 0003543 173.3904 186.7266 14.15267246628156
Epoch (UTC): 16 July 2024 22:37:21
Eccentricity: 0.0003543
inclination: 71.0196°
perigee height: 839 km
apogee height: 844 km
right ascension of ascending node: 185.2494°
argument of perigee: 173.3904°
revolutions per day: 14.15267246
mean anomaly at epoch: 186.7266°
orbit number at epoch: 62815

The dashed part of the orbit path shows where the satellite is in the earth's shadow,  

DLR